TimeCDT,TemperatureF,Dew PointF,Humidity,Sea Level PressureIn,VisibilityMPH,Wind Direction,Wind SpeedMPH,Gust SpeedMPH,PrecipitationIn,Events,Conditions,WindDirDegrees,DateUTC
12:12 AM,35.6,33.8,93,30.33,10.0,Calm,Calm,-,0.01,,Clear,0,2013-09-16 05:12:00
12:33 AM,33.8,33.8,100,30.33,10.0,Calm,Calm,-,0.01,,Clear,0,2013-09-16 05:33:00
12:53 AM,33.8,32.0,93,30.33,10.0,Calm,Calm,-,0.01,,Clear,0,2013-09-16 05:53:00
1:12 AM,30.2,30.2,100,30.33,10.0,Calm,Calm,-,N/A,,Clear,0,2013-09-16 06:12:00
1:33 AM,32.0,30.2,93,30.34,10.0,Calm,Calm,-,N/A,,Clear,0,2013-09-16 06:33:00
1:53 AM,32.0,30.2,93,30.34,10.0,Calm,Calm,-,N/A,,Clear,0,2013-09-16 06:53:00
2:12 AM,30.2,30.2,100,30.35,10.0,Calm,Calm,-,N/A,,Clear,0,2013-09-16 07:12:00
2:33 AM,30.2,30.2,100,30.35,10.0,Calm,Calm,-,N/A,,Clear,0,2013-09-16 07:33:00
2:53 AM,30.2,30.2,100,30.36,10.0,Calm,Calm,-,N/A,,Clear,0,2013-09-16 07:53:00
3:13 AM,30.2,30.2,100,30.36,10.0,Calm,Calm,-,N/A,,Clear,0,2013-09-16 08:13:00
3:33 AM,30.2,30.2,100,30.36,10.0,Calm,Calm,-,N/A,,Clear,0,2013-09-16 08:33:00
3:52 AM,30.2,28.4,93,30.36,10.0,Calm,Calm,-,N/A,,Clear,0,2013-09-16 08:52:00
4:13 AM,30.2,28.4,93,30.36,10.0,Calm,Calm,-,0.01,,Clear,0,2013-09-16 09:13:00
4:33 AM,30.2,28.4,93,30.37,7.0,Calm,Calm,-,0.01,,Clear,0,2013-09-16 09:33:00
4:52 AM,28.4,28.4,100,30.36,10.0,Calm,Calm,-,0.01,,Clear,0,2013-09-16 09:52:00
5:13 AM,28.4,28.4,100,30.37,10.0,Calm,Calm,-,N/A,,Clear,0,2013-09-16 10:13:00
5:33 AM,28.4,28.4,100,30.37,2.5,Calm,Calm,-,N/A,,Scattered Clouds,0,2013-09-16 10:33:00
5:52 AM,28.4,28.4,100,30.37,1.5,Calm,Calm,-,N/A,,Mostly Cloudy,0,2013-09-16 10:52:00
6:13 AM,28.4,28.4,100,30.38,1.2,Calm,Calm,-,N/A,,Mostly Cloudy,0,2013-09-16 11:13:00
6:33 AM,28.4,28.4,100,30.38,7.0,Calm,Calm,-,N/A,,Clear,0,2013-09-16 11:33:00
6:52 AM,28.4,28.4,100,30.39,10.0,Calm,Calm,-,N/A,,Clear,0,2013-09-16 11:52:00
7:13 AM,28.4,28.4,100,30.39,10.0,Calm,Calm,-,N/A,,Clear,0,2013-09-16 12:13:00
7:33 AM,30.2,28.4,93,30.40,10.0,Calm,Calm,-,N/A,,Clear,0,2013-09-16 12:33:00
7:52 AM,32.0,32.0,100,30.39,10.0,Calm,Calm,-,N/A,,Clear,0,2013-09-16 12:52:00
8:13 AM,37.4,35.6,93,30.39,10.0,Calm,Calm,-,N/A,,Clear,0,2013-09-16 13:13:00
8:33 AM,41.0,37.4,87,30.39,10.0,Calm,Calm,-,N/A,,Clear,0,2013-09-16 13:33:00
8:52 AM,42.8,37.4,81,30.39,10.0,Calm,Calm,-,N/A,,Clear,0,2013-09-16 13:52:00
9:13 AM,44.6,39.2,81,30.40,10.0,Calm,Calm,-,N/A,,Clear,0,2013-09-16 14:13:00
9:33 AM,46.4,41.0,81,30.41,10.0,Calm,Calm,-,N/A,,Clear,0,2013-09-16 14:33:00
9:52 AM,50.0,39.2,66,30.41,10.0,Calm,Calm,-,N/A,,Clear,0,2013-09-16 14:52:00
10:13 AM,51.8,39.2,62,30.40,10.0,South,3.5,-,N/A,,Clear,190,2013-09-16 15:13:00
10:33 AM,53.6,39.2,58,30.40,10.0,WSW,3.5,-,N/A,,Clear,250,2013-09-16 15:33:00
10:52 AM,53.6,37.4,54,30.40,10.0,South,6.9,-,N/A,,Clear,190,2013-09-16 15:52:00
11:13 AM,55.4,35.6,47,30.39,10.0,WSW,3.5,-,N/A,,Clear,240,2013-09-16 16:13:00
11:33 AM,55.4,35.6,47,30.39,10.0,SSW,3.5,-,N/A,,Clear,210,2013-09-16 16:33:00
11:52 AM,57.2,35.6,44,30.38,10.0,South,3.5,-,N/A,,Clear,170,2013-09-16 16:52:00
12:13 PM,57.2,35.6,44,30.38,10.0,SSW,8.1,-,N/A,,Clear,210,2013-09-16 17:13:00
12:33 PM,57.2,35.6,44,30.38,10.0,SW,6.9,-,N/A,,Clear,230,2013-09-16 17:33:00
12:52 PM,57.2,35.6,44,30.37,10.0,WNW,3.5,-,N/A,,Clear,290,2013-09-16 17:52:00
1:13 PM,60.8,35.6,39,30.37,10.0,South,4.6,-,N/A,,Clear,190,2013-09-16 18:13:00
1:33 PM,60.8,33.8,36,30.36,10.0,WSW,8.1,-,N/A,,Clear,240,2013-09-16 18:33:00
1:52 PM,59.0,35.6,42,30.35,10.0,WSW,4.6,-,N/A,,Clear,240,2013-09-16 18:52:00
2:13 PM,60.8,35.6,39,30.34,10.0,SSW,4.6,-,N/A,,Clear,200,2013-09-16 19:13:00
2:33 PM,62.6,37.4,39,30.33,10.0,SW,4.6,-,N/A,,Clear,220,2013-09-16 19:33:00
2:52 PM,60.8,37.4,42,30.33,10.0,South,3.5,-,N/A,,Clear,190,2013-09-16 19:52:00
3:13 PM,62.6,37.4,39,30.32,10.0,West,4.6,-,N/A,,Clear,260,2013-09-16 20:13:00
3:32 PM,62.6,37.4,39,30.31,10.0,SW,5.8,-,N/A,,Clear,230,2013-09-16 20:32:00
3:53 PM,62.6,37.4,39,30.30,10.0,SW,5.8,-,N/A,,Clear,220,2013-09-16 20:53:00
4:12 PM,62.6,37.4,39,30.30,10.0,SSW,6.9,-,N/A,,Clear,200,2013-09-16 21:12:00
4:33 PM,62.6,37.4,39,30.29,10.0,SSW,4.6,-,N/A,,Clear,200,2013-09-16 21:33:00
4:53 PM,62.6,39.2,42,30.28,10.0,SW,4.6,-,N/A,,Clear,230,2013-09-16 21:53:00
5:12 PM,62.6,37.4,39,30.28,10.0,SW,5.8,-,N/A,,Clear,220,2013-09-16 22:12:00
5:33 PM,62.6,39.2,42,30.28,10.0,SSW,5.8,-,N/A,,Clear,200,2013-09-16 22:33:00
5:53 PM,62.6,39.2,42,30.27,10.0,SSW,5.8,-,N/A,,Clear,210,2013-09-16 22:53:00
6:13 PM,60.8,39.2,45,30.26,10.0,SSW,5.8,-,N/A,,Clear,200,2013-09-16 23:13:00
6:32 PM,59.0,41.0,51,30.26,10.0,South,5.8,-,N/A,,Clear,190,2013-09-16 23:32:00
6:53 PM,57.2,42.8,59,30.26,10.0,South,4.6,-,N/A,,Clear,190,2013-09-16 23:53:00
7:13 PM,55.4,42.8,63,30.25,10.0,South,3.5,-,N/A,,Clear,180,2013-09-17 00:13:00
7:32 PM,53.6,42.8,67,30.25,10.0,South,4.6,-,N/A,,Clear,170,2013-09-17 00:32:00
7:53 PM,51.8,42.8,71,30.25,10.0,SSE,8.1,-,N/A,,Clear,160,2013-09-17 00:53:00
8:13 PM,51.8,39.2,62,30.25,10.0,South,5.8,-,N/A,,Clear,170,2013-09-17 01:13:00
8:32 PM,50.0,39.2,66,30.25,10.0,South,5.8,-,N/A,,Clear,170,2013-09-17 01:32:00
8:53 PM,50.0,39.2,66,30.25,10.0,South,5.8,-,N/A,,Clear,170,2013-09-17 01:53:00
9:13 PM,48.2,39.2,71,30.25,10.0,South,6.9,-,N/A,,Clear,170,2013-09-17 02:13:00
9:32 PM,48.2,39.2,71,30.25,10.0,South,6.9,-,N/A,,Clear,170,2013-09-17 02:32:00
9:53 PM,46.4,39.2,76,30.25,10.0,South,4.6,-,N/A,,Clear,170,2013-09-17 02:53:00
10:13 PM,46.4,39.2,76,30.25,10.0,South,4.6,-,N/A,,Clear,170,2013-09-17 03:13:00
10:32 PM,46.4,39.2,76,30.25,10.0,South,6.9,-,N/A,,Clear,180,2013-09-17 03:32:00
10:53 PM,44.6,39.2,81,30.25,10.0,South,5.8,-,N/A,,Clear,170,2013-09-17 03:53:00
11:13 PM,44.6,39.2,81,30.25,10.0,SSE,6.9,-,N/A,,Clear,160,2013-09-17 04:13:00
11:32 PM,44.6,39.2,81,30.25,10.0,SSE,6.9,-,N/A,,Clear,160,2013-09-17 04:32:00
11:53 PM,44.6,41.0,87,30.25,10.0,SSE,6.9,-,N/A,,Clear,160,2013-09-17 04:53:00